Regional Weather Roundup
Issued by NWS

Home | Current Version | Previous Version | Text Only | Print | Product List | Glossary Off
Versions: 1 2 3 4 5 6 7 8 9 10 11 12 13 14 15 16 17 18 19 20 21 22 23 24 25 26 27 28 29 30 31 32 33 34 35 36 37 38 39 40 41 42 43 44 45 46 47 48 49 50

000
ASUS43 KIND 250959
RWRIN

WEATHER ROUNDUP FOR INDIANA
NATIONAL WEATHER SERVICE INDIANAPOLIS IN
600 AM EDT MON MAY 25 2015

NOTE: "FAIR" INDICATES FEW OR NO CLOUDS BELOW 12,000 FEET WITH NO
SIGNIFICANT WEATHER AND/OR OBSTRUCTIONS TO VISIBILITY.

* - STATION DOES NOT REPORT WEATHER SUCH AS PRECIPITATION OR FOG.

+ - STATION NOT QUALITY CONTROLLED BY THE NATIONAL WEATHER SERVICE.
    USE DATA WITH CAUTION...ESPECIALLY DEWPOINT AND RELATIVE
    HUMIDITY OBSERVATIONS.

INZ001>003-010>013-019-020-251100-
NORTHWEST INDIANA

CITY           SKY/WX    TMP DP  RH WIND       PRES   REMARKS
GARY /AIRPORT/ MOCLDY    72  64  78 S14G25    29.88S
RENSSELAER +   CLOUDY    72  64  78 S13       29.92S

$$

LMZ046-743>745-251100-
SOUTHERN LAKE MICHIGAN

STATION/POSITION TIME  TEMP    WIND        PRES    WAVE
                       AIR SEA DIR/SP/G            HT
                 (UTC) (F)     (DEG/KT/KT) (MB)    (FT)
BURNS HARBOR     0900   71     180/  9/ 16 1012.5R
MICHIGAN CITY    0900   73     150/ 14/ 19   N/A
5NW MICH CITY    0900   65 53  200/ 10/ 12   N/A     1

$$

INZ004-005-014>016-021>024-251100-
NORTH CENTRAL INDIANA

CITY           SKY/WX    TMP DP  RH WIND       PRES   REMARKS
GOSHEN         CLOUDY    71  59  65 S16       29.95S
SOUTH BEND     CLOUDY    73  60  63 S13       29.92S

$$

INZ006>009-017-018-025>027-251100-
NORTHEAST INDIANA

CITY           SKY/WX    TMP DP  RH WIND       PRES   REMARKS
ANGOLA *+      CLEAR     68  57  68 S7        29.98S
FORT WAYNE     CLOUDY    71  58  63 S16       30.00S

$$

INZ028-029-035-036-043>045-051>053-251100-
WEST CENTRAL INDIANA

CITY           SKY/WX    TMP DP  RH WIND       PRES   REMARKS
CRAWFORDSVL +  CLOUDY    70  58  65 S22G29    29.98R
GREENCASTLE +  CLOUDY    68  61  77 S10G23    30.01S
LAFAYETTE      CLOUDY    72  63  73 S14G22    29.94R
TERRE HAUTE    LGT RAIN  69  66  90 S16G29    29.99R

$$

INZ030>032-037>040-046>048-054>057-064-065-251100-
CENTRAL INDIANA

CITY           SKY/WX    TMP DP  RH WIND       PRES   REMARKS
GREENWOOD *+   CLOUDY    68  63  83 S14G21    30.05R
INDIANAPOLIS   LGT RAIN  71  63  75 S20G37    30.01R
-EAGLE CREEK   CLOUDY    73  62  68 S21G32    30.01R
KOKOMO *+      MOCLDY    72  59  64 S16       29.98R
MT COMFORT *+  CLOUDY    70  55  60 S15G25    30.05R
SHELBYVILLE    LGT RAIN  70  64  81 S16G23    30.05R

$$

INZ033-034-041-042-049-050-058-059-251100-
EAST CENTRAL INDIANA

CITY           SKY/WX    TMP DP  RH WIND       PRES   REMARKS
MUNCIE         MOCLDY    73  59  61 S16G23    30.02S

$$

INZ060-061-067>069-081>083-085>088-251100-
SOUTHWEST INDIANA

CITY           SKY/WX    TMP DP  RH WIND       PRES   REMARKS
EVANSVILLE     LGT RAIN  69  66  90 S13       30.05R
HUNTINGBURG *+ CLOUDY    68  64  88 S15G24    30.07R

$$

INZ062-063-066-070>080-084-089>092-251100-
SOUTH CENTRAL AND SOUTHEAST INDIANA

CITY           SKY/WX    TMP DP  RH WIND       PRES   REMARKS
BLOOMINGTON    LGT RAIN  68  65  90 S13G21    30.03F
MADISON *+     MOCLDY    70  57  64 S6        30.10S
SEYMOUR +      CLOUDY    72  61  68 S7        30.06S

$$




USA.gov is the U.S. government's official web portal to all federal, state and local government web resources and services.